Columbia, MO

9:53 PM CST on January 18, 2017 (GMT -0600)
Columbia Regional

Weather History for KCOU - February, 2012

Change the Weather History Date:

Saturday, February 11, 2012

  Actual Average Record
Temperature  
Mean Temperature 21 °F 33 °F  
Max Temperature 29 °F 43 °F 74 °F (1951)
Min Temperature 12 °F 24 °F -21 °F (1899)
Degree Days  
Heating Degree Days 44 32  
Month to date heating degree days 296 364  
Since 1 July heating degree days 2917 3453  
Cooling Degree Days 0 0  
Month to date cooling degree days 0 0  
Year to date cooling degree days 0 0  
Moisture  
Dew Point 2 °F    
Average Humidity 52    
Maximum Humidity 73    
Minimum Humidity 31    
Precipitation  
Precipitation 0.00 in 0.09 in 1.44 in (1998)
Month to date precipitation 1.45 0.81  
Year to date precipitation 2.19 2.73  
Snow  
Snow 0.00 in 0.20 in 2.10 in (1948)
Month to date snowfall 0.3 2.0  
Since 1 July snowfall 3.2 13.4  
Snow Depth 0.00 in    
Sea Level Pressure  
Sea Level Pressure 30.59 in    
Wind  
Wind Speed 15 mph (NW)    
Max Wind Speed 24 mph    
Max Gust Speed 31 mph    
Visibility 10 miles    
Events      
T = Trace of Precipitation, MM = Missing Value Source: NWS Daily Summary

Daily Weather History Graph

Daily Weather History Graph

Search for Another Location

Airport or City:

Trip Planner

Search our weather history database for the weather conditions in past years. The results will help you decide how hot, cold, wet, or windy it might be!

Date:

Astronomy

Feb. 11, 2012 Rise Set
Actual Time 7:05 AM CST 5:41 PM CST
Civil Twilight 6:37 AM CST 6:08 PM CST
Nautical Twilight 6:06 AM CST 6:40 PM CST
Astronomical Twilight 5:35 AM CST 7:11 PM CST
Moon 10:26 PM CST (2/11) 8:51 AM CST (2/11)
Length of Visible Light 11h 31m
Length of Day
10h 36m
Waning Gibbous, 82% of the Moon is Illuminated
Feb 11
Waning Gibbous
Feb 14
Last Quarter
Feb 21
New
Feb 29
First Quarter
Mar 8
Full

Hourly Weather History & Observations

Time (CST) Temp. Windchill Dew Point Humidity Pressure Visibility Wind Dir Wind Speed Gust Speed Precip Events Conditions
12:54 AM 16.0 °F -0.4 °F 7.0 °F 68% 30.41 in 10.0 mi NW 18.4 mph 23.0 mph N/A   Clear
1:54 AM 16.0 °F 0.6 °F 7.0 °F 68% 30.43 in 10.0 mi NNW 16.1 mph - N/A   Clear
2:54 AM 15.1 °F 1.1 °F 6.1 °F 68% 30.47 in 10.0 mi NNW 12.7 mph - N/A   Clear
3:54 AM 14.0 °F -0.8 °F 6.1 °F 71% 30.50 in 10.0 mi NNW 13.8 mph - N/A   Clear
4:54 AM 14.0 °F -0.2 °F 3.9 °F 64% 30.53 in 10.0 mi NNW 12.7 mph - N/A   Clear
5:54 AM 12.9 °F -2.2 °F 3.9 °F 67% 30.56 in 10.0 mi NNW 13.8 mph - N/A   Clear
6:54 AM 12.0 °F -1.3 °F 3.0 °F 67% 30.59 in 10.0 mi NW 10.4 mph - N/A   Clear
7:54 AM 12.9 °F -0.2 °F 3.0 °F 65% 30.62 in 10.0 mi NW 10.4 mph - N/A   Clear
8:54 AM 15.1 °F -1.1 °F 1.0 °F 54% 30.65 in 10.0 mi NW 17.3 mph - N/A   Clear
9:54 AM 18.0 °F 4.8 °F 1.0 °F 48% 30.66 in 10.0 mi WNW 12.7 mph - N/A   Clear
10:54 AM 21.0 °F 6.6 °F 1.0 °F 42% 30.67 in 10.0 mi NW 17.3 mph - N/A   Clear
11:54 AM 23.0 °F 8.7 °F 1.0 °F 39% 30.65 in 10.0 mi NW 18.4 mph 26.5 mph N/A   Clear
12:54 PM 27.0 °F 13.9 °F 1.9 °F 34% 30.63 in 10.0 mi NW 18.4 mph 31.1 mph N/A   Clear
1:54 PM 28.0 °F 14.6 °F 1.0 °F 31% 30.61 in 10.0 mi NNW 20.7 mph 29.9 mph N/A   Clear
2:54 PM 28.9 °F 15.8 °F 1.0 °F 30% 30.62 in 10.0 mi NW 20.7 mph 26.5 mph N/A   Clear
3:54 PM 28.0 °F 15.3 °F 1.9 °F 33% 30.63 in 10.0 mi NW 18.4 mph 25.3 mph N/A   Clear
4:54 PM 27.0 °F 14.7 °F 1.0 °F 33% 30.61 in 10.0 mi NW 16.1 mph - N/A   Clear
5:54 PM 25.0 °F 14.8 °F 1.0 °F 36% 30.62 in 10.0 mi WNW 10.4 mph 19.6 mph N/A   Clear
6:54 PM 23.0 °F 12.4 °F 1.9 °F 40% 30.63 in 10.0 mi WNW 10.4 mph - N/A   Clear
7:54 PM 21.9 °F 11.0 °F 1.0 °F 40% 30.63 in 10.0 mi NW 10.4 mph - N/A   Clear
8:54 PM 21.0 °F 8.1 °F 1.0 °F 42% 30.63 in 10.0 mi NW 13.8 mph - N/A   Clear
9:54 PM 19.0 °F 6.8 °F 1.0 °F 46% 30.63 in 10.0 mi NW 11.5 mph - N/A   Clear
10:54 PM 18.0 °F 5.4 °F -0.0 °F 45% 30.61 in 10.0 mi NW 11.5 mph - N/A   Clear
11:54 PM 17.1 °F 4.3 °F -0.9 °F 45% 30.62 in 10.0 mi NW 11.5 mph - N/A   Clear